| time (UTC) | temp F | wind direction | speed knots | gust knots | rain 1hr in | rain 24hr in | rain mn in | humidity % | barometer mb |
| 20260510082439 | 53 | 270 | 0.0 | 0.0 | 0.00 | 0.01 | 0.00 | 96 | 1013.9 |
| 20260510081457 | 53 | 157 | 0.0 | 0.0 | 0.00 | 0.01 | 0.00 | 96 | 1013.6 |
| 20260510075540 | 53 | 157 | 0.0 | 0.0 | 0.00 | 0.01 | 0.00 | 95 | 1013.5 |
| 20260510074638 | 53 | 157 | 0.0 | 0.0 | 0.00 | 0.01 | 0.00 | 95 | 1013.4 |
| 20260510073639 | 53 | 157 | 0.0 | 0.0 | 0.00 | 0.01 | 0.00 | 94 | 1013.5 |
| 20260510072641 | 53 | 157 | 0.0 | 0.0 | 0.00 | 0.01 | 0.00 | 93 | 1013.3 |
| 20260510071740 | 53 | 157 | 0.0 | 0.0 | 0.00 | 0.01 | 0.00 | 93 | 1013.2 |
| 20260510070741 | 53 | 157 | 0.0 | 0.0 | 0.00 | 0.01 | 0.00 | 92 | 1013.1 |
| 20260510064740 | 54 | 157 | 0.0 | 0.0 | 0.00 | 0.01 | 0.00 | 92 | 1012.8 |
| 20260510063740 | 54 | 157 | 0.0 | 0.0 | 0.00 | 0.01 | 0.00 | 92 | 1012.9 |
| 20260510063640 | 54 | 157 | 0.0 | 0.0 | 0.00 | 0.01 | 0.00 | 92 | 1012.9 |
| 20260510062739 | 55 | 157 | 0.0 | 0.0 | 0.00 | 0.01 | 0.00 | 92 | 1012.9 |
| 20260510061740 | 55 | 157 | 0.0 | 0.0 | 0.00 | 0.01 | 0.00 | 91 | 1012.8 |
| 20260510060839 | 55 | 157 | 0.0 | 0.0 | 0.00 | 0.01 | 0.00 | 90 | 1012.9 |
| 20260510055842 | 55 | 157 | 0.0 | 0.0 | 0.00 | 0.01 | 0.00 | 90 | 1013.0 |
| 20260510054841 | 56 | 157 | 0.0 | 0.0 | 0.00 | 0.01 | 0.00 | 91 | 1012.9 |
| 20260510053839 | 56 | 157 | 0.0 | 0.0 | 0.00 | 0.01 | 0.00 | 91 | 1012.8 |
| 20260510052840 | 56 | 157 | 0.0 | 0.0 | 0.00 | 0.01 | 0.00 | 91 | 1013.0 |
| 20260510050941 | 56 | 157 | 0.0 | 0.0 | 0.00 | 0.01 | 0.00 | 88 | 1012.9 |
| 20260510045940 | 56 | 157 | 0.0 | 0.0 | 0.00 | 0.01 | 0.00 | 88 | 1012.9 |
| 20260510044940 | 56 | 157 | 0.0 | 0.0 | 0.00 | 0.01 | 0.00 | 87 | 1012.9 |
| 20260510044039 | 57 | 157 | 0.0 | 0.0 | 0.00 | 0.01 | 0.00 | 87 | 1012.9 |
| 20260510042039 | 57 | 157 | 0.0 | 0.0 | 0.00 | 0.01 | 0.00 | 86 | 1013.0 |
| 20260510041056 | 57 | 157 | 0.0 | 0.0 | 0.00 | 0.01 | 0.00 | 86 | 1013.0 |
| 20260510040140 | 57 | 157 | 0.0 | 0.0 | 0.00 | 0.01 | 0.00 | 86 | 1012.9 |
| 20260510035125 | 57 | 157 | 0.0 | 0.0 | 0.00 | 0.01 | 0.01 | 84 | 1012.8 |
| 20260510034126 | 58 | 157 | 0.0 | 0.0 | 0.00 | 0.01 | 0.01 | 83 | 1012.8 |
| 20260510034027 | 58 | 157 | 0.0 | 0.0 | 0.00 | 0.01 | 0.01 | 83 | 1012.8 |
| 20260510032026 | 59 | 157 | 0.0 | 0.0 | 0.00 | 0.01 | 0.01 | 82 | 1012.8 |
| 20260510031124 | 59 | 157 | 0.0 | 0.0 | 0.00 | 0.01 | 0.01 | 81 | 1012.7 |
| 20260510030126 | 59 | 157 | 0.0 | 0.0 | 0.00 | 0.01 | 0.01 | 80 | 1012.8 |
| 20260510025126 | 60 | 157 | 0.0 | 0.0 | 0.00 | 0.01 | 0.01 | 79 | 1012.7 |
| 20260510024126 | 60 | 157 | 0.0 | 0.0 | 0.00 | 0.01 | 0.01 | 77 | 1012.8 |
| 20260510023224 | 61 | 157 | 0.0 | 0.0 | 0.00 | 0.01 | 0.01 | 77 | 1012.6 |
| 20260510022225 | 62 | 157 | 0.0 | 0.0 | 0.00 | 0.01 | 0.01 | 76 | 1012.6 |
| 20260510021226 | 62 | 157 | 0.0 | 0.0 | 0.00 | 0.01 | 0.01 | 76 | 1012.5 |
| 20260510021126 | 61 | 157 | 0.0 | 0.0 | 0.00 | 0.01 | 0.01 | 76 | 1012.4 |
| 20260510020126 | 61 | 157 | 0.0 | 0.0 | 0.00 | 0.01 | 0.01 | 76 | 1012.4 |
| 20260510015125 | 61 | 157 | 0.0 | 0.0 | 0.00 | 0.01 | 0.01 | 75 | 1012.2 |
| 20260510014224 | 61 | 157 | 0.0 | 0.0 | 0.00 | 0.01 | 0.01 | 74 | 1012.1 |
| 20260510014141 | 61 | 157 | 0.0 | 0.0 | 0.00 | 0.01 | 0.01 | 74 | 1012.1 |
| 20260510013226 | 61 | 157 | 0.0 | 0.0 | 0.00 | 0.01 | 0.01 | 74 | 1012.0 |
| 20260510012226 | 61 | 157 | 0.0 | 0.0 | 0.00 | 0.01 | 0.01 | 72 | 1011.8 |
| 20260510012127 | 61 | 157 | 0.0 | 0.0 | 0.00 | 0.01 | 0.01 | 72 | 1011.8 |
| 20260510011127 | 62 | 157 | 0.0 | 0.0 | 0.00 | 0.01 | 0.01 | 71 | 1011.6 |
| 20260510010126 | 62 | 157 | 0.0 | 0.0 | 0.00 | 0.01 | 0.01 | 70 | 1011.5 |
| 20260510004126 | 64 | 157 | 0.0 | 0.0 | 0.00 | 0.01 | 0.01 | 66 | 1011.4 |
| 20260510003225 | 64 | 157 | 0.0 | 0.0 | 0.00 | 0.01 | 0.01 | 65 | 1011.3 |
| 20260510002324 | 65 | 157 | 0.0 | 0.0 | 0.00 | 0.01 | 0.01 | 64 | 1011.2 |
| 20260510001328 | 66 | 157 | 0.0 | 0.0 | 0.00 | 0.01 | 0.01 | 63 | 1011.1 |
| 20260510000326 | 67 | 157 | 0.0 | 0.0 | 0.00 | 0.01 | 0.01 | 62 | 1010.9 |
| 20260509235326 | 68 | 157 | 0.0 | 0.0 | 0.00 | 0.01 | 0.01 | 61 | 1011.0 |
| 20260509234327 | 69 | 157 | 0.0 | 0.0 | 0.00 | 0.01 | 0.01 | 60 | 1010.8 |
| 20260509233326 | 69 | 157 | 0.0 | 0.0 | 0.00 | 0.01 | 0.01 | 58 | 1010.8 |
| 20260509231325 | 71 | 180 | 0.0 | 0.0 | 0.00 | 0.01 | 0.01 | 56 | 1010.7 |
| 20260509230325 | 72 | 180 | 0.0 | 0.0 | 0.00 | 0.01 | 0.01 | 55 | 1010.7 |
| 20260509225325 | 73 | 247 | 0.0 | 0.0 | 0.00 | 0.01 | 0.01 | 54 | 1010.6 |
| 20260509224326 | 73 | 112 | 0.0 | 0.0 | 0.00 | 0.01 | 0.01 | 55 | 1010.7 |
| 20260509223327 | 73 | 202 | 0.0 | 0.0 | 0.00 | 0.01 | 0.01 | 56 | 1010.6 |
| 20260509221326 | 75 | 180 | 0.0 | 0.0 | 0.00 | 0.01 | 0.01 | 57 | 1010.8 |
| 20260509220424 | 74 | 158 | 0.0 | 0.0 | 0.00 | 0.01 | 0.01 | 52 | 1010.8 |
| 20260509215427 | 75 | 112 | 0.0 | 0.0 | 0.00 | 0.01 | 0.01 | 51 | 1010.7 |
| 20260509214426 | 75 | 70 | 0.0 | 0.0 | 0.00 | 0.01 | 0.01 | 49 | 1010.6 |
| 20260509213524 | 77 | 292 | 0.0 | 0.0 | 0.00 | 0.01 | 0.01 | 47 | 1010.7 |
| 20260509212525 | 79 | 292 | 0.0 | 0.0 | 0.00 | 0.01 | 0.01 | 46 | 1010.6 |
| 20260509211526 | 79 | 135 | 0.0 | 0.0 | 0.00 | 0.01 | 0.01 | 46 | 1010.5 |
| 20260509210526 | 79 | 153 | 0.0 | 2.6 | 0.00 | 0.01 | 0.01 | 47 | 1010.6 |
| 20260509205525 | 79 | 191 | 0.0 | 1.7 | 0.00 | 0.01 | 0.01 | 47 | 1010.4 |
| 20260509204525 | 79 | 69 | 0.0 | 1.7 | 0.00 | 0.01 | 0.01 | 48 | 1010.5 |
| 20260509203624 | 78 | 244 | 0.0 | 0.9 | 0.00 | 0.01 | 0.01 | 49 | 1010.3 |
| 20260509202626 | 77 | 22 | 0.0 | 0.0 | 0.00 | 0.01 | 0.01 | 50 | 1010.4 |
| 20260509201624 | 76 | 202 | 0.0 | 1.7 | 0.00 | 0.01 | 0.01 | 52 | 1010.4 |
| 20260509200625 | 75 | 204 | 0.9 | 3.5 | 0.00 | 0.01 | 0.01 | 56 | 1010.6 |
| 20260509194725 | 72 | 202 | 0.0 | 0.0 | 0.00 | 0.01 | 0.01 | 62 | 1011.1 |
| 20260509193726 | 69 | 169 | 0.0 | 0.0 | 0.00 | 0.01 | 0.01 | 62 | 1011.3 |
| 20260509192825 | 68 | 181 | 0.0 | 1.7 | 0.00 | 0.01 | 0.01 | 65 | 1011.5 |
| 20260509191826 | 67 | 287 | 0.0 | 2.6 | 0.01 | 0.01 | 0.01 | 64 | 1011.8 |
| 20260509190826 | 67 | 250 | 1.7 | 4.3 | 0.01 | 0.01 | 0.01 | 67 | 1011.7 |
| 20260509185924 | 66 | 292 | 0.9 | 4.3 | 0.01 | 0.01 | 0.01 | 68 | 1011.8 |
| 20260509185024 | 65 | 292 | 0.0 | 2.6 | 0.01 | 0.01 | 0.01 | 72 | 1011.7 |
| 20260509184025 | 65 | 22 | 0.0 | 0.0 | 0.01 | 0.01 | 0.01 | 70 | 1012.0 |
| 20260509183027 | 67 | 315 | 0.0 | 0.9 | 0.01 | 0.01 | 0.01 | 61 | 1012.2 |
| 20260509182027 | 68 | 202 | 0.0 | 0.9 | 0.00 | 0.00 | 0.00 | 57 | 1012.4 |
| 20260509181025 | 68 | 288 | 1.7 | 3.5 | 0.00 | 0.00 | 0.00 | 56 | 1012.5 |
| 20260509180025 | 69 | 275 | 0.0 | 2.6 | 0.00 | 0.00 | 0.00 | 56 | 1012.6 |
| 20260509173128 | 73 | 279 | 0.9 | 2.6 | 0.00 | 0.00 | 0.00 | 51 | 1012.5 |
| 20260509172125 | 73 | 117 | 0.9 | 3.5 | 0.00 | 0.00 | 0.00 | 53 | 1012.7 |
| 20260509171126 | 71 | 99 | 0.0 | 0.9 | 0.00 | 0.00 | 0.00 | 56 | 1012.7 |
| 20260509170126 | 70 | 200 | 0.9 | 2.6 | 0.00 | 0.00 | 0.00 | 58 | 1012.9 |
| 20260509165224 | 69 | 173 | 0.9 | 1.7 | 0.00 | 0.00 | 0.00 | 59 | 1012.9 |
| 20260509164228 | 69 | 337 | 0.0 | 0.0 | 0.00 | 0.00 | 0.00 | 58 | 1012.9 |
| 20260509163225 | 69 | 67 | 0.0 | 0.0 | 0.00 | 0.00 | 0.00 | 58 | 1013.0 |
| 20260509162226 | 69 | 247 | 0.0 | 0.0 | 0.00 | 0.00 | 0.00 | 57 | 1012.9 |
| 20260509160325 | 69 | 108 | 0.9 | 1.7 | 0.00 | 0.00 | 0.00 | 61 | 1013.0 |
| 20260509155327 | 68 | 269 | 0.9 | 2.6 | 0.00 | 0.00 | 0.00 | 59 | 1013.2 |
| 20260509152426 | 68 | 50 | 0.0 | 1.7 | 0.00 | 0.00 | 0.00 | 60 | 1013.4 |
| 20260509151426 | 68 | 84 | 0.9 | 2.6 | 0.00 | 0.00 | 0.00 | 60 | 1013.5 |
| 20260509150525 | 67 | 211 | 0.0 | 1.7 | 0.00 | 0.00 | 0.00 | 62 | 1013.5 |
| 20260509144526 | 64 | 155 | 1.7 | 3.5 | 0.00 | 0.00 | 0.00 | 64 | 1013.9 |
| 20260509143527 | 63 | 184 | 0.9 | 1.7 | 0.00 | 0.00 | 0.00 | 66 | 1014.0 |
| 20260509142525 | 62 | 255 | 0.0 | 1.7 | 0.00 | 0.00 | 0.00 | 68 | 1014.3 |
| 20260509141527 | 61 | 225 | 0.0 | 0.0 | 0.00 | 0.00 | 0.00 | 69 | 1014.2 |
| 20260509140625 | 60 | 230 | 0.0 | 0.9 | 0.00 | 0.00 | 0.00 | 70 | 1014.3 |
| 20260509135645 | 60 | 157 | 0.0 | 0.0 | 0.00 | 0.00 | 0.00 | 70 | 1014.2 |
| 20260509134725 | 59 | 133 | 0.0 | 0.9 | 0.00 | 0.00 | 0.00 | 70 | 1014.3 |
| 20260509133725 | 59 | 337 | 0.0 | 0.0 | 0.00 | 0.00 | 0.00 | 70 | 1014.4 |
| 20260509132724 | 59 | 271 | 0.0 | 0.9 | 0.00 | 0.00 | 0.00 | 69 | 1014.4 |
| 20260509131726 | 59 | 16 | 0.0 | 0.0 | 0.00 | 0.00 | 0.00 | 70 | 1014.2 |
| 20260509130726 | 58 | 194 | 0.0 | 0.0 | 0.00 | 0.00 | 0.00 | 69 | 1014.4 |
| 20260509125825 | 58 | 146 | 0.0 | 1.7 | 0.00 | 0.00 | 0.00 | 68 | 1014.3 |
| 20260509124828 | 58 | 112 | 0.0 | 0.9 | 0.00 | 0.00 | 0.00 | 68 | 1014.4 |
| 20260509123825 | 58 | 166 | 0.0 | 0.0 | 0.00 | 0.00 | 0.00 | 68 | 1014.3 |
| 20260509122924 | 58 | 150 | 0.0 | 0.0 | 0.00 | 0.00 | 0.00 | 67 | 1014.4 |
| 20260509121941 | 58 | 168 | 0.0 | 2.6 | 0.00 | 0.00 | 0.00 | 66 | 1014.3 |
| 20260509120925 | 58 | 240 | 0.0 | 1.7 | 0.00 | 0.00 | 0.00 | 66 | 1014.2 |
| 20260509115927 | 58 | 148 | 0.0 | 0.9 | 0.00 | 0.00 | 0.00 | 66 | 1014.2 |
| 20260509114926 | 57 | 253 | 0.0 | 3.5 | 0.00 | 0.00 | 0.00 | 65 | 1014.2 |
| 20260509113927 | 57 | 90 | 0.0 | 0.0 | 0.00 | 0.00 | 0.00 | 64 | 1014.3 |
| 20260509112926 | 57 | 141 | 0.0 | 0.0 | 0.00 | 0.00 | 0.00 | 64 | 1014.4 |
| 20260509111927 | 57 | 108 | 0.0 | 1.7 | 0.00 | 0.00 | 0.00 | 64 | 1014.0 |
| 20260509110925 | 57 | 181 | 0.0 | 1.7 | 0.00 | 0.00 | 0.00 | 63 | 1014.0 |
| 20260509105926 | 57 | 168 | 0.0 | 0.9 | 0.00 | 0.00 | 0.00 | 62 | 1014.0 |
| 20260509104925 | 57 | 156 | 0.0 | 0.0 | 0.00 | 0.00 | 0.00 | 60 | 1014.0 |
| 20260509102924 | 57 | 135 | 0.0 | 0.0 | 0.00 | 0.00 | 0.00 | 58 | 1013.7 |
| 20260509102824 | 57 | 135 | 0.0 | 0.0 | 0.00 | 0.00 | 0.00 | 58 | 1013.7 |
| 20260509101824 | 57 | 202 | 0.0 | 0.0 | 0.00 | 0.00 | 0.00 | 57 | 1013.7 |
| 20260509100826 | 57 | 135 | 0.0 | 0.0 | 0.00 | 0.00 | 0.00 | 56 | 1013.7 |
| 20260509095725 | 58 | 157 | 0.0 | 0.0 | 0.00 | 0.00 | 0.00 | 55 | 1013.6 |
| 20260509094726 | 58 | 157 | 0.0 | 0.0 | 0.00 | 0.00 | 0.00 | 54 | 1013.6 |
| 20260509092725 | 58 | 113 | 0.0 | 0.9 | 0.00 | 0.00 | 0.00 | 54 | 1013.7 |
| 20260509091724 | 58 | 137 | 0.0 | 0.9 | 0.00 | 0.00 | 0.00 | 54 | 1013.9 |
| 20260509090725 | 58 | 180 | 0.0 | 0.0 | 0.00 | 0.00 | 0.00 | 54 | 1013.8 |
| 20260509085725 | 58 | 22 | 0.0 | 0.0 | 0.00 | 0.00 | 0.00 | 54 | 1013.8 |
| 20260509084724 | 58 | 337 | 0.0 | 0.0 | 0.00 | 0.00 | 0.00 | 55 | 1013.9 |